TimeCST,TemperatureF,Dew PointF,Humidity,Sea Level PressureIn,VisibilityMPH,Wind Direction,Wind SpeedMPH,Gust SpeedMPH,PrecipitationIn,Events,Conditions,WindDirDegrees,DateUTC
12:55 AM,45.1,32.4,61,30.22,10.0,North,8.1,-,N/A,,Scattered Clouds,10,2012-11-14 06:55:00
1:55 AM,44.4,32.5,63,30.21,10.0,North,8.1,-,N/A,,Scattered Clouds,10,2012-11-14 07:55:00
2:55 AM,43.5,33.1,67,30.22,10.0,North,8.1,-,N/A,,Scattered Clouds,360,2012-11-14 08:55:00
3:55 AM,43.5,33.6,68,30.22,10.0,North,9.2,-,N/A,,Scattered Clouds,360,2012-11-14 09:55:00
4:55 AM,43.0,34.7,73,30.22,10.0,North,5.8,-,N/A,,Mostly Cloudy,10,2012-11-14 10:55:00
5:55 AM,43.3,36.3,76,30.22,10.0,North,8.1,-,N/A,,Mostly Cloudy,10,2012-11-14 11:55:00
6:55 AM,44.2,37.9,79,30.25,10.0,North,6.9,-,N/A,,Mostly Cloudy,10,2012-11-14 12:55:00
7:35 AM,46.4,41.0,81,30.24,10.0,North,5.8,-,N/A,,Mostly Cloudy,10,2012-11-14 13:35:00
7:55 AM,48.0,42.8,82,30.27,10.0,North,5.8,-,N/A,,Overcast,360,2012-11-14 13:55:00
8:55 AM,51.8,46.6,82,30.27,10.0,North,2.3,-,N/A,,Overcast,10,2012-11-14 14:55:00
9:17 AM,53.6,46.4,77,30.25,9.0,Variable,1.2,-,N/A,,Overcast,0,2012-11-14 15:17:00
9:55 AM,55.6,49.3,79,30.27,8.0,NNE,4.6,-,N/A,,Overcast,20,2012-11-14 15:55:00
10:37 AM,55.4,50.0,82,30.25,7.0,ENE,4.6,-,N/A,,Light Drizzle,70,2012-11-14 16:37:00
10:55 AM,55.9,50.5,82,30.25,7.0,NE,3.5,-,0.00,,Light Drizzle,50,2012-11-14 16:55:00
11:01 AM,57.2,50.0,77,30.24,7.0,NNE,5.8,-,N/A,,Overcast,30,2012-11-14 17:01:00
11:28 AM,57.2,51.8,82,30.23,7.0,NNE,5.8,-,N/A,,Overcast,20,2012-11-14 17:28:00
11:55 AM,58.6,51.6,77,30.24,7.0,Variable,3.5,-,0.00,,Mostly Cloudy,0,2012-11-14 17:55:00
12:17 PM,60.8,51.8,72,30.21,10.0,North,5.8,-,N/A,,Mostly Cloudy,10,2012-11-14 18:17:00
12:55 PM,61.7,52.3,71,30.22,10.0,NNE,5.8,-,N/A,,Scattered Clouds,20,2012-11-14 18:55:00
1:55 PM,63.1,52.5,68,30.20,10.0,NE,8.1,-,N/A,,Scattered Clouds,40,2012-11-14 19:55:00
2:55 PM,63.9,53.2,68,30.20,10.0,North,9.2,-,N/A,,Mostly Cloudy,10,2012-11-14 20:55:00
3:55 PM,60.4,53.1,77,30.20,10.0,North,9.2,-,N/A,,Mostly Cloudy,10,2012-11-14 21:55:00
4:26 PM,59.0,53.6,82,30.19,10.0,NNE,9.2,-,N/A,,Mostly Cloudy,30,2012-11-14 22:26:00
4:55 PM,58.6,53.4,83,30.22,10.0,North,8.1,-,N/A,,Overcast,10,2012-11-14 22:55:00
5:26 PM,57.2,53.6,88,30.20,10.0,NNE,9.2,-,N/A,,Overcast,20,2012-11-14 23:26:00
5:55 PM,57.7,53.4,85,30.23,10.0,North,9.2,-,N/A,,Overcast,10,2012-11-14 23:55:00
6:30 PM,57.2,53.6,88,30.21,10.0,North,9.2,-,N/A,,Overcast,10,2012-11-15 00:30:00
6:55 PM,57.2,53.4,87,30.24,10.0,NNE,10.4,-,N/A,,Overcast,30,2012-11-15 00:55:00
7:44 PM,57.2,53.6,88,30.22,5.0,North,6.9,-,N/A,,Overcast,10,2012-11-15 01:44:00
7:55 PM,56.1,53.8,92,30.24,5.0,North,8.1,-,N/A,,Overcast,10,2012-11-15 01:55:00
8:55 PM,55.2,53.6,94,30.24,5.0,NNE,6.9,-,N/A,,Overcast,20,2012-11-15 02:55:00
9:55 PM,55.2,53.2,93,30.24,10.0,NE,8.1,-,N/A,,Overcast,40,2012-11-15 03:55:00
10:55 PM,55.2,53.2,93,30.22,10.0,NNE,9.2,-,N/A,,Overcast,20,2012-11-15 04:55:00
11:29 PM,55.4,53.6,94,30.20,10.0,NE,6.9,-,N/A,,Overcast,40,2012-11-15 05:29:00
11:55 PM,55.0,53.1,93,30.22,10.0,North,4.6,-,N/A,,Overcast,10,2012-11-15 05:55:00